Time,TemperatureF,DewpointF,PressureIn,WindDirection,WindDirectionDegrees,WindSpeedMPH,WindSpeedGustMPH,Humidity,HourlyPrecipIn,Conditions,Clouds,dailyrainin,SolarRadiationWatts/m^2,SoftwareType,DateUTC
2013-02-12 00:01:00,49.0,24.0,-100.00,West,273,0.0,4.0,37,0.00,,,0.00,0.000000,,2013-02-12 08:01:00,
2013-02-12 00:11:00,49.0,24.0,-100.00,West,273,0.0,4.0,37,0.00,,,0.00,0.000000,,2013-02-12 08:11:00,
2013-02-12 00:21:00,49.0,24.0,-100.00,West,273,0.0,4.0,37,0.00,,,0.00,0.000000,,2013-02-12 08:21:00,
2013-02-12 00:52:00,48.0,22.0,-100.00,West,271,3.0,4.0,35,0.00,,,0.00,0.000000,,2013-02-12 08:52:00,
2013-02-12 01:01:00,48.0,22.0,-100.00,West,271,3.0,4.0,35,0.00,,,0.00,0.000000,,2013-02-12 09:01:00,
2013-02-12 01:11:00,48.0,22.0,-100.00,West,271,3.0,4.0,35,0.00,,,0.00,0.000000,,2013-02-12 09:11:00,
2013-02-12 01:21:00,48.0,22.0,-100.00,West,271,3.0,4.0,35,0.00,,,0.00,0.000000,,2013-02-12 09:21:00,
2013-02-12 01:52:00,48.0,24.0,-100.00,East,99,3.0,5.0,38,0.00,,,0.00,0.000000,,2013-02-12 09:52:00,
2013-02-12 02:01:00,48.0,24.0,-100.00,East,99,3.0,5.0,38,0.00,,,0.00,0.000000,,2013-02-12 10:01:00,
2013-02-12 02:11:00,48.0,24.0,-100.00,East,99,3.0,5.0,38,0.00,,,0.00,0.000000,,2013-02-12 10:11:00,
2013-02-12 02:21:00,48.0,24.0,-100.00,East,99,3.0,5.0,38,0.00,,,0.00,0.000000,,2013-02-12 10:21:00,
2013-02-12 02:52:00,48.0,25.0,-100.00,East,90,0.0,4.0,40,0.00,,,0.00,0.000000,,2013-02-12 10:52:00,
2013-02-12 03:01:00,48.0,25.0,-100.00,East,90,0.0,4.0,40,0.00,,,0.00,0.000000,,2013-02-12 11:01:00,
2013-02-12 03:11:00,48.0,25.0,-100.00,East,90,0.0,4.0,40,0.00,,,0.00,0.000000,,2013-02-12 11:11:00,
2013-02-12 03:21:00,48.0,25.0,-100.00,East,90,0.0,4.0,40,0.00,,,0.00,0.000000,,2013-02-12 11:21:00,
2013-02-12 03:52:00,47.0,27.0,-100.00,ESE,112,1.0,3.0,45,0.00,,,0.00,0.000000,,2013-02-12 11:52:00,
2013-02-12 04:01:00,47.0,27.0,-100.00,ESE,112,1.0,3.0,45,0.00,,,0.00,0.000000,,2013-02-12 12:01:00,
2013-02-12 04:11:00,47.0,27.0,-100.00,ESE,112,1.0,3.0,45,0.00,,,0.00,0.000000,,2013-02-12 12:11:00,
2013-02-12 04:21:00,47.0,27.0,-100.00,ESE,112,1.0,3.0,45,0.00,,,0.00,0.000000,,2013-02-12 12:21:00,
2013-02-12 04:52:00,47.0,26.0,-100.00,ESE,113,5.0,6.0,43,0.00,,,0.00,0.000000,,2013-02-12 12:52:00,
2013-02-12 05:01:00,47.0,26.0,-100.00,ESE,113,5.0,6.0,43,0.00,,,0.00,0.000000,,2013-02-12 13:01:00,
2013-02-12 05:11:00,47.0,26.0,-100.00,ESE,113,5.0,6.0,43,0.00,,,0.00,0.000000,,2013-02-12 13:11:00,
2013-02-12 05:22:00,47.0,26.0,-100.00,ESE,113,5.0,6.0,43,0.00,,,0.00,0.000000,,2013-02-12 13:22:00,
2013-02-12 05:52:00,46.0,26.0,-100.00,ESE,114,7.0,10.0,45,0.00,,,0.00,0.000000,,2013-02-12 13:52:00,
2013-02-12 06:01:00,46.0,26.0,-100.00,ESE,114,7.0,10.0,45,0.00,,,0.00,0.000000,,2013-02-12 14:01:00,
2013-02-12 06:11:00,46.0,26.0,-100.00,ESE,114,7.0,10.0,45,0.00,,,0.00,0.000000,,2013-02-12 14:11:00,
2013-02-12 06:21:00,46.0,26.0,-100.00,ESE,114,7.0,10.0,45,0.00,,,0.00,0.000000,,2013-02-12 14:21:00,
2013-02-12 06:52:00,47.0,24.0,-100.00,ESE,110,10.0,12.0,40,0.00,,,0.00,0.000000,,2013-02-12 14:52:00,
2013-02-12 07:01:00,47.0,24.0,-100.00,ESE,110,10.0,12.0,40,0.00,,,0.00,0.000000,,2013-02-12 15:01:00,
2013-02-12 07:11:00,47.0,24.0,-100.00,ESE,110,10.0,12.0,40,0.00,,,0.00,0.000000,,2013-02-12 15:11:00,
2013-02-12 07:21:00,47.0,24.0,-100.00,ESE,110,10.0,12.0,40,0.00,,,0.00,0.000000,,2013-02-12 15:21:00,
2013-02-12 07:52:00,49.0,26.0,-100.00,ESE,111,8.0,11.0,40,0.00,,,0.00,7.000000,,2013-02-12 15:52:00,
2013-02-12 08:01:00,49.0,26.0,-100.00,ESE,111,8.0,11.0,40,0.00,,,0.00,7.000000,,2013-02-12 16:01:00,
2013-02-12 08:52:00,50.0,27.0,-100.00,East,82,4.0,10.0,41,0.00,,,0.00,94.000000,,2013-02-12 16:52:00,
2013-02-12 09:01:00,50.0,27.0,-100.00,East,82,4.0,10.0,41,0.00,,,0.00,94.000000,,2013-02-12 17:01:00,
2013-02-12 09:11:00,50.0,27.0,-100.00,East,82,4.0,10.0,41,0.00,,,0.00,94.000000,,2013-02-12 17:11:00,
2013-02-12 09:21:00,50.0,27.0,-100.00,East,82,4.0,10.0,41,0.00,,,0.00,94.000000,,2013-02-12 17:21:00,
2013-02-12 09:52:00,52.0,32.0,-100.00,ENE,77,5.0,9.0,47,0.00,,,0.00,273.000000,,2013-02-12 17:52:00,
2013-02-12 10:01:00,52.0,32.0,-100.00,ENE,77,5.0,9.0,47,0.00,,,0.00,273.000000,,2013-02-12 18:01:00,
2013-02-12 10:11:00,52.0,32.0,-100.00,ENE,77,5.0,9.0,47,0.00,,,0.00,273.000000,,2013-02-12 18:11:00,
2013-02-12 10:22:00,52.0,32.0,-100.00,ENE,77,5.0,9.0,47,0.00,,,0.00,273.000000,,2013-02-12 18:22:00,
2013-02-12 10:52:00,52.0,39.0,-100.00,ENE,77,6.0,9.0,62,0.00,,,0.00,442.000000,,2013-02-12 18:52:00,
2013-02-12 11:02:00,52.0,39.0,-100.00,ENE,77,6.0,9.0,62,0.00,,,0.00,442.000000,,2013-02-12 19:02:00,
2013-02-12 11:11:00,52.0,39.0,-100.00,ENE,77,6.0,9.0,62,0.00,,,0.00,442.000000,,2013-02-12 19:11:00,
2013-02-12 11:21:00,52.0,39.0,-100.00,ENE,77,6.0,9.0,62,0.00,,,0.00,442.000000,,2013-02-12 19:21:00,
2013-02-12 11:52:00,55.0,37.0,-100.00,ENE,74,9.0,11.0,51,0.00,,,-99.99,552.000000,,2013-02-12 19:52:00,
2013-02-12 12:01:00,55.0,37.0,-100.00,ENE,74,9.0,11.0,51,0.00,,,-99.99,552.000000,,2013-02-12 20:01:00,
2013-02-12 12:11:00,55.0,37.0,-100.00,ENE,74,9.0,11.0,51,0.00,,,-99.99,552.000000,,2013-02-12 20:11:00,
2013-02-12 12:21:00,55.0,37.0,-100.00,ENE,74,9.0,11.0,51,0.00,,,-99.99,552.000000,,2013-02-12 20:21:00,
2013-02-12 12:52:00,56.0,35.0,-100.00,ENE,78,10.0,12.0,45,0.00,,,0.00,587.000000,,2013-02-12 20:52:00,
2013-02-12 13:01:00,56.0,35.0,-100.00,ENE,78,10.0,12.0,45,0.00,,,0.00,587.000000,,2013-02-12 21:01:00,
2013-02-12 13:11:00,56.0,35.0,-100.00,ENE,78,10.0,12.0,45,0.00,,,0.00,587.000000,,2013-02-12 21:11:00,
2013-02-12 13:21:00,56.0,35.0,-100.00,ENE,78,10.0,12.0,45,0.00,,,0.00,587.000000,,2013-02-12 21:21:00,
2013-02-12 13:52:00,58.0,33.0,-100.00,East,97,8.0,12.0,39,0.00,,,0.00,604.000000,,2013-02-12 21:52:00,
2013-02-12 14:01:00,58.0,33.0,-100.00,East,97,8.0,12.0,39,0.00,,,0.00,604.000000,,2013-02-12 22:01:00,
2013-02-12 14:12:00,58.0,33.0,-100.00,East,97,8.0,12.0,39,0.00,,,0.00,604.000000,,2013-02-12 22:12:00,
2013-02-12 14:21:00,58.0,33.0,-100.00,East,97,8.0,12.0,39,0.00,,,0.00,604.000000,,2013-02-12 22:21:00,
2013-02-12 14:52:00,55.0,31.0,-100.00,ENE,72,8.0,12.0,39,0.00,,,0.00,549.000000,,2013-02-12 22:52:00,
2013-02-12 15:01:00,55.0,31.0,-100.00,ENE,72,8.0,12.0,39,0.00,,,0.00,549.000000,,2013-02-12 23:01:00,
2013-02-12 15:11:00,55.0,31.0,-100.00,ENE,72,8.0,12.0,39,0.00,,,0.00,549.000000,,2013-02-12 23:11:00,
2013-02-12 15:21:00,55.0,31.0,-100.00,ENE,72,8.0,12.0,39,0.00,,,0.00,549.000000,,2013-02-12 23:21:00,
2013-02-12 15:52:00,52.0,32.0,-100.00,ENE,74,5.0,10.0,46,0.00,,,0.00,435.000000,,2013-02-12 23:52:00,
2013-02-12 16:02:00,52.0,32.0,-100.00,ENE,74,5.0,10.0,46,0.00,,,0.00,435.000000,,2013-02-13 00:02:00,
2013-02-12 16:11:00,52.0,32.0,-100.00,ENE,74,5.0,10.0,46,0.00,,,0.00,435.000000,,2013-02-13 00:11:00,
2013-02-12 16:21:00,52.0,32.0,-100.00,ENE,74,5.0,10.0,46,0.00,,,0.00,435.000000,,2013-02-13 00:21:00,
2013-02-12 16:52:00,50.0,32.0,-100.00,ESE,112,6.0,7.0,49,0.00,,,0.00,281.000000,,2013-02-13 00:52:00,
2013-02-12 17:01:00,50.0,32.0,-100.00,ESE,112,6.0,7.0,49,0.00,,,0.00,281.000000,,2013-02-13 01:01:00,
2013-02-12 17:11:00,50.0,32.0,-100.00,ESE,112,6.0,7.0,49,0.00,,,0.00,281.000000,,2013-02-13 01:11:00,
2013-02-12 17:21:00,50.0,32.0,-100.00,ESE,112,6.0,7.0,49,0.00,,,0.00,281.000000,,2013-02-13 01:21:00,
2013-02-12 18:11:00,48.0,33.0,-100.00,ESE,110,7.0,9.0,55,0.00,,,0.00,103.000000,,2013-02-13 02:11:00,
2013-02-12 18:21:00,48.0,33.0,-100.00,ESE,110,7.0,9.0,55,0.00,,,0.00,103.000000,,2013-02-13 02:21:00,
2013-02-12 18:52:00,48.0,31.0,-100.00,ESE,102,6.0,7.0,51,0.00,,,0.00,4.000000,,2013-02-13 02:52:00,
2013-02-12 19:01:00,48.0,31.0,-100.00,ESE,102,6.0,7.0,51,0.00,,,0.00,4.000000,,2013-02-13 03:01:00,
2013-02-12 19:11:00,48.0,31.0,-100.00,ESE,102,6.0,7.0,51,0.00,,,0.00,4.000000,,2013-02-13 03:11:00,
2013-02-12 19:21:00,48.0,31.0,-100.00,ESE,102,6.0,7.0,51,0.00,,,0.00,4.000000,,2013-02-13 03:21:00,
2013-02-12 19:52:00,48.0,29.0,-100.00,SE,126,1.0,7.0,47,0.00,,,0.00,0.000000,,2013-02-13 03:52:00,
2013-02-12 20:01:00,48.0,29.0,-100.00,SE,126,1.0,7.0,47,0.00,,,0.00,0.000000,,2013-02-13 04:01:00,
2013-02-12 20:11:00,48.0,29.0,-100.00,SE,126,1.0,7.0,47,0.00,,,0.00,0.000000,,2013-02-13 04:11:00,
2013-02-12 20:21:00,48.0,29.0,-100.00,SE,126,1.0,7.0,47,0.00,,,0.00,0.000000,,2013-02-13 04:21:00,
2013-02-12 20:52:00,47.0,28.0,-100.00,WSW,247,4.0,6.0,48,0.00,,,0.00,0.000000,,2013-02-13 04:52:00,
2013-02-12 21:01:00,47.0,28.0,-100.00,WSW,247,4.0,6.0,48,0.00,,,0.00,0.000000,,2013-02-13 05:01:00,
2013-02-12 21:11:00,47.0,28.0,-100.00,WSW,247,4.0,6.0,48,0.00,,,0.00,0.000000,,2013-02-13 05:11:00,
2013-02-12 21:22:00,47.0,28.0,-100.00,WSW,247,4.0,6.0,48,0.00,,,0.00,0.000000,,2013-02-13 05:22:00,
2013-02-12 21:52:00,48.0,32.0,-100.00,WSW,257,9.0,11.0,53,0.00,,,0.00,0.000000,,2013-02-13 05:52:00,
2013-02-12 22:02:00,48.0,32.0,-100.00,WSW,257,9.0,11.0,53,0.00,,,0.00,0.000000,,2013-02-13 06:02:00,
2013-02-12 22:11:00,48.0,32.0,-100.00,WSW,257,9.0,11.0,53,0.00,,,0.00,0.000000,,2013-02-13 06:11:00,
2013-02-12 22:21:00,48.0,32.0,-100.00,WSW,257,9.0,11.0,53,0.00,,,0.00,0.000000,,2013-02-13 06:21:00,
2013-02-12 22:52:00,48.0,31.0,-100.00,West,260,9.0,12.0,51,0.00,,,0.00,0.000000,,2013-02-13 06:52:00,
2013-02-12 23:02:00,48.0,31.0,-100.00,West,260,9.0,12.0,51,0.00,,,0.00,0.000000,,2013-02-13 07:02:00,
2013-02-12 23:11:00,48.0,31.0,-100.00,West,260,9.0,12.0,51,0.00,,,0.00,0.000000,,2013-02-13 07:11:00,
2013-02-12 23:21:00,48.0,31.0,-100.00,West,260,9.0,12.0,51,0.00,,,0.00,0.000000,,2013-02-13 07:21:00,
2013-02-12 23:52:00,47.0,35.0,-100.00,West,260,10.0,15.0,63,0.00,,,0.00,0.000000,,2013-02-13 07:52:00,